HORIZONS-3E

Last updated on Fri Feb 06 2026 00:02:53 GMT+0000 (Coordinated Universal Time)

1 43633U 18074B 26036.16155602 -.00000034 00000+0 00000+0 0 9998 2 43633 0.0468 254.7183 0000574 64.2458 43.4728 1.00271934 27019
UTC large
Height (km)
Speed (km/s)
/
Latitude / Longitude
Inclination (degrees)
Orbital Period (minutes)
Azimuth
Elevation
Range (km)
Doppler Factor

Next 0 passes for location: London (51.5072 / 0.1276)

Sorry there are no passes over London.